Retour au catalogue

OPS 5113

NAVSTAR 3

ActifNavigationMEO
NORAD 11054·PAYLOAD·🇺🇸 United States

Lancé Oct 7, 1978 depuis Vandenberg Space Force Base

Loading…

Prochains Passages (prochaines 24 heures)

TLE

FraisSource: Space-Track

Époque: Sep 14, 2026, 05:17 UTC

1 11054U 78093A   26257.22014346 -.00000038  00000-0  00000-0 0  9994
2 11054  62.8604 297.5199 0102449 227.1204 130.6374  1.93504746342393

Suivez OPS 5113 en temps réel avec AllMySat

Download on the App Store